Anzahl Datensätze: 288
min. Temperatur: 8.4 °C
max. Temperatur: 19.7 °C
max. Windgeschwindigkeit: 16.2 km/h
Niederschlagsumme: 0.0 mm
| Datum |
Zeit |
Temp °C |
Feuchte % |
Taupunkt °C |
Luftdruck hPa |
Wind km/h |
Windrichtung |
Strahlung w/m² |
Niederschlag mm |
|---|---|---|---|---|---|---|---|---|---|
| 07.10.2022 | 00:04 | 10.7 | 88 | 8.8 | 1028.6 | 0.0 | NNW | 0 | 0.0 |
| 07.10.2022 | 00:08 | 10.7 | 88 | 8.8 | 1028.7 | 0.0 | NNW | 0 | 0.0 |
| 07.10.2022 | 00:14 | 10.7 | 88 | 8.8 | 1028.6 | 0.0 | N | 0 | 0.0 |
| 07.10.2022 | 00:18 | 10.7 | 88 | 8.8 | 1028.6 | 0.0 | NNW | 0 | 0.0 |
| 07.10.2022 | 00:24 | 10.7 | 88 | 8.8 | 1028.6 | 0.0 | N | 0 | 0.0 |
| 07.10.2022 | 00:28 | 10.7 | 88 | 8.8 | 1028.6 | 1.4 | N | 0 | 0.0 |
| 07.10.2022 | 00:34 | 10.7 | 88 | 8.8 | 1028.5 | 0.0 | NNW | 0 | 0.0 |
| 07.10.2022 | 00:38 | 10.7 | 88 | 8.8 | 1028.4 | 0.0 | NNW | 0 | 0.0 |
| 07.10.2022 | 00:44 | 10.7 | 88 | 8.8 | 1028.4 | 0.0 | NNW | 0 | 0.0 |
| 07.10.2022 | 00:48 | 10.8 | 88 | 8.9 | 1028.4 | 0.0 | NNW | 0 | 0.0 |
| 07.10.2022 | 00:54 | 10.8 | 88 | 8.9 | 1028.4 | 0.0 | NNW | 0 | 0.0 |
| 07.10.2022 | 00:58 | 10.7 | 89 | 9.0 | 1028.3 | 0.0 | NNW | 0 | 0.0 |
| 07.10.2022 | 01:04 | 10.8 | 88 | 8.9 | 1028.3 | 0.0 | N | 0 | 0.0 |
| 07.10.2022 | 01:08 | 10.8 | 88 | 8.9 | 1028.2 | 1.4 | N | 0 | 0.0 |
| 07.10.2022 | 01:14 | 10.8 | 88 | 8.9 | 1028.1 | 1.4 | NNW | 0 | 0.0 |
| 07.10.2022 | 01:18 | 10.8 | 88 | 8.9 | 1028.1 | 1.4 | NNW | 0 | 0.0 |
| 07.10.2022 | 01:24 | 10.8 | 88 | 8.9 | 1028.0 | 1.4 | NNW | 0 | 0.0 |
| 07.10.2022 | 01:28 | 10.8 | 88 | 8.9 | 1028.0 | 3.2 | N | 0 | 0.0 |
| 07.10.2022 | 01:34 | 10.9 | 88 | 9.0 | 1028.1 | 3.2 | N | 0 | 0.0 |
| 07.10.2022 | 01:38 | 10.9 | 88 | 9.0 | 1028.0 | 1.4 | N | 0 | 0.0 |
| 07.10.2022 | 01:44 | 10.9 | 88 | 9.0 | 1028.0 | 1.4 | NNW | 0 | 0.0 |
| 07.10.2022 | 01:48 | 10.9 | 88 | 9.0 | 1027.9 | 1.4 | NNW | 0 | 0.0 |
| 07.10.2022 | 01:54 | 10.9 | 88 | 9.0 | 1027.8 | 1.4 | N | 0 | 0.0 |
| 07.10.2022 | 01:58 | 11.0 | 88 | 9.1 | 1027.8 | 1.4 | NNW | 0 | 0.0 |
| 07.10.2022 | 02:04 | 11.0 | 88 | 9.1 | 1027.9 | 1.4 | N | 0 | 0.0 |
| 07.10.2022 | 02:08 | 10.9 | 89 | 9.2 | 1027.9 | 0.0 | N | 0 | 0.0 |
| 07.10.2022 | 02:14 | 10.9 | 89 | 9.2 | 1027.9 | 0.0 | NNW | 0 | 0.0 |
| 07.10.2022 | 02:18 | 10.9 | 88 | 9.0 | 1027.8 | 0.0 | NNW | 0 | 0.0 |
| 07.10.2022 | 02:24 | 10.9 | 89 | 9.2 | 1027.8 | 1.4 | NNW | 0 | 0.0 |
| 07.10.2022 | 02:28 | 10.9 | 89 | 9.2 | 1027.8 | 1.4 | N | 0 | 0.0 |
| 07.10.2022 | 02:34 | 11.0 | 89 | 9.3 | 1027.7 | 0.0 | NNW | 0 | 0.0 |
| 07.10.2022 | 02:38 | 11.0 | 89 | 9.3 | 1027.7 | 1.4 | N | 0 | 0.0 |
| 07.10.2022 | 02:44 | 11.0 | 89 | 9.3 | 1027.6 | 1.4 | N | 0 | 0.0 |
| 07.10.2022 | 02:48 | 11.1 | 89 | 9.4 | 1027.5 | 1.4 | N | 0 | 0.0 |
| 07.10.2022 | 02:54 | 11.1 | 89 | 9.4 | 1027.4 | 1.4 | N | 0 | 0.0 |
| 07.10.2022 | 02:58 | 11.1 | 89 | 9.4 | 1027.3 | 0.0 | N | 0 | 0.0 |
| 07.10.2022 | 03:04 | 11.1 | 89 | 9.4 | 1027.2 | 0.0 | NNW | 0 | 0.0 |
| 07.10.2022 | 03:08 | 11.1 | 89 | 9.4 | 1027.1 | 0.0 | NNW | 0 | 0.0 |
| 07.10.2022 | 03:14 | 11.0 | 89 | 9.3 | 1027.1 | 1.4 | NNW | 0 | 0.0 |
| 07.10.2022 | 03:18 | 11.0 | 89 | 9.3 | 1027.0 | 3.2 | NNW | 0 | 0.0 |
| 07.10.2022 | 03:24 | 10.9 | 89 | 9.2 | 1026.9 | 3.2 | NW | 0 | 0.0 |
| 07.10.2022 | 03:28 | 10.9 | 89 | 9.2 | 1026.9 | 3.2 | NNW | 0 | 0.0 |
| 07.10.2022 | 03:34 | 10.8 | 89 | 9.1 | 1026.9 | 4.7 | NNW | 0 | 0.0 |
| 07.10.2022 | 03:38 | 10.8 | 90 | 9.2 | 1026.8 | 3.2 | NNW | 0 | 0.0 |
| 07.10.2022 | 03:44 | 10.8 | 90 | 9.2 | 1026.7 | 3.2 | NNW | 0 | 0.0 |
| 07.10.2022 | 03:48 | 10.8 | 89 | 9.1 | 1026.7 | 3.2 | NNW | 0 | 0.0 |
| 07.10.2022 | 03:54 | 10.8 | 90 | 9.2 | 1026.7 | 3.2 | NNW | 0 | 0.0 |
| 07.10.2022 | 03:58 | 10.8 | 89 | 9.1 | 1026.6 | 1.4 | NNW | 0 | 0.0 |
| 07.10.2022 | 04:04 | 10.8 | 89 | 9.1 | 1026.6 | 3.2 | N | 0 | 0.0 |
| 07.10.2022 | 04:08 | 10.8 | 89 | 9.1 | 1026.6 | 3.2 | NNW | 0 | 0.0 |
| 07.10.2022 | 04:14 | 10.8 | 88 | 8.9 | 1026.5 | 1.4 | NO | 0 | 0.0 |
| 07.10.2022 | 04:18 | 10.8 | 88 | 8.9 | 1026.5 | 1.4 | NNW | 0 | 0.0 |
| 07.10.2022 | 04:24 | 10.9 | 87 | 8.8 | 1026.4 | 1.4 | NNO | 0 | 0.0 |
| 07.10.2022 | 04:28 | 10.9 | 87 | 8.8 | 1026.4 | 0.0 | N | 0 | 0.0 |
| 07.10.2022 | 04:34 | 10.9 | 87 | 8.8 | 1026.2 | 0.0 | NNW | 0 | 0.0 |
| 07.10.2022 | 04:38 | 11.0 | 86 | 8.7 | 1026.2 | 0.0 | N | 0 | 0.0 |
| 07.10.2022 | 04:44 | 10.9 | 86 | 8.6 | 1026.2 | 1.4 | N | 0 | 0.0 |
| 07.10.2022 | 04:48 | 10.8 | 86 | 8.6 | 1026.2 | 3.2 | NNW | 0 | 0.0 |
| 07.10.2022 | 04:54 | 10.7 | 87 | 8.6 | 1026.1 | 1.4 | NNW | 0 | 0.0 |
| 07.10.2022 | 04:58 | 10.7 | 88 | 8.8 | 1026.1 | 1.4 | NNW | 0 | 0.0 |
| 07.10.2022 | 05:04 | 10.6 | 88 | 8.7 | 1026.0 | 3.2 | NNW | 0 | 0.0 |
| 07.10.2022 | 05:08 | 10.5 | 88 | 8.6 | 1026.0 | 3.2 | NNW | 0 | 0.0 |
| 07.10.2022 | 05:14 | 10.4 | 88 | 8.5 | 1026.0 | 1.4 | NNW | 0 | 0.0 |
| 07.10.2022 | 05:18 | 10.3 | 88 | 8.4 | 1026.0 | 1.4 | N | 0 | 0.0 |
| 07.10.2022 | 05:24 | 10.3 | 88 | 8.4 | 1025.9 | 3.2 | N | 0 | 0.0 |
| 07.10.2022 | 05:28 | 10.3 | 88 | 8.4 | 1025.9 | 3.2 | N | 0 | 0.0 |
| 07.10.2022 | 05:34 | 10.3 | 88 | 8.4 | 1025.8 | 3.2 | NNO | 0 | 0.0 |
| 07.10.2022 | 05:38 | 10.3 | 88 | 8.4 | 1025.8 | 3.2 | NNW | 0 | 0.0 |
| 07.10.2022 | 05:44 | 10.2 | 88 | 8.3 | 1025.8 | 3.2 | N | 0 | 0.0 |
| 07.10.2022 | 05:48 | 10.2 | 87 | 8.1 | 1025.8 | 3.2 | N | 0 | 0.0 |
| 07.10.2022 | 05:54 | 10.2 | 87 | 8.1 | 1025.8 | 3.2 | NNW | 0 | 0.0 |
| 07.10.2022 | 05:58 | 10.2 | 87 | 8.1 | 1025.9 | 3.2 | NNW | 0 | 0.0 |
| 07.10.2022 | 06:04 | 10.2 | 87 | 8.1 | 1025.9 | 4.7 | NNW | 0 | 0.0 |
| 07.10.2022 | 06:08 | 10.2 | 87 | 8.1 | 1025.8 | 3.2 | NNW | 0 | 0.0 |
| 07.10.2022 | 06:14 | 10.1 | 87 | 8.0 | 1025.8 | 3.2 | N | 0 | 0.0 |
| 07.10.2022 | 06:18 | 10.1 | 88 | 8.2 | 1025.7 | 3.2 | N | 0 | 0.0 |
| 07.10.2022 | 06:24 | 9.9 | 88 | 8.0 | 1025.7 | 3.2 | NNW | 0 | 0.0 |
| 07.10.2022 | 06:28 | 9.9 | 88 | 8.0 | 1025.6 | 3.2 | N | 0 | 0.0 |
| 07.10.2022 | 06:34 | 9.8 | 88 | 7.9 | 1025.6 | 3.2 | NNW | 0 | 0.0 |
| 07.10.2022 | 06:38 | 9.7 | 88 | 7.8 | 1025.5 | 3.2 | NNW | 0 | 0.0 |
| 07.10.2022 | 06:44 | 9.6 | 88 | 7.7 | 1025.5 | 3.2 | NNW | 0 | 0.0 |
| 07.10.2022 | 06:48 | 9.4 | 89 | 7.7 | 1025.5 | 3.2 | NNW | 0 | 0.0 |
| 07.10.2022 | 06:54 | 9.3 | 89 | 7.6 | 1025.5 | 1.4 | NNW | 0 | 0.0 |
| 07.10.2022 | 06:58 | 9.2 | 90 | 7.6 | 1025.5 | 1.4 | NNW | 0 | 0.0 |
| 07.10.2022 | 07:04 | 9.1 | 90 | 7.5 | 1025.5 | 1.4 | NNW | 0 | 0.0 |
| 07.10.2022 | 07:08 | 9.0 | 90 | 7.4 | 1025.4 | 1.4 | NNW | 0 | 0.0 |
| 07.10.2022 | 07:14 | 8.9 | 90 | 7.3 | 1025.4 | 0.0 | N | 0 | 0.0 |
| 07.10.2022 | 07:18 | 8.9 | 90 | 7.3 | 1025.4 | 0.0 | N | 0 | 0.0 |
| 07.10.2022 | 07:24 | 8.8 | 91 | 7.4 | 1025.4 | 0.0 | N | 0 | 0.0 |
| 07.10.2022 | 07:28 | 8.7 | 91 | 7.3 | 1025.4 | 0.0 | NNW | 0 | 0.0 |
| 07.10.2022 | 07:34 | 8.7 | 91 | 7.3 | 1025.4 | 0.0 | N | 5 | 0.0 |
| 07.10.2022 | 07:38 | 8.7 | 91 | 7.3 | 1025.4 | 0.0 | N | 5 | 0.0 |
| 07.10.2022 | 07:44 | 8.6 | 91 | 7.2 | 1025.4 | 0.0 | NNW | 9 | 0.0 |
| 07.10.2022 | 07:48 | 8.6 | 91 | 7.2 | 1025.4 | 0.0 | NNW | 11 | 0.0 |
| 07.10.2022 | 07:54 | 8.4 | 92 | 7.2 | 1025.4 | 0.0 | NNW | 16 | 0.0 |
| 07.10.2022 | 07:58 | 8.4 | 92 | 7.2 | 1025.3 | 0.0 | NNW | 18 | 0.0 |
| 07.10.2022 | 08:04 | 8.4 | 92 | 7.2 | 1025.3 | 0.0 | NNW | 21 | 0.0 |
| 07.10.2022 | 08:08 | 8.4 | 92 | 7.2 | 1025.3 | 0.0 | NNW | 25 | 0.0 |
| 07.10.2022 | 08:14 | 8.4 | 92 | 7.2 | 1025.4 | 0.0 | NNW | 32 | 0.0 |
| 07.10.2022 | 08:18 | 8.4 | 92 | 7.2 | 1025.3 | 0.0 | NNW | 33 | 0.0 |
| 07.10.2022 | 08:24 | 8.4 | 92 | 7.2 | 1025.3 | 0.0 | NNW | 35 | 0.0 |
| 07.10.2022 | 08:28 | 8.4 | 92 | 7.2 | 1025.4 | 0.0 | NNW | 44 | 0.0 |
| 07.10.2022 | 08:34 | 8.4 | 92 | 7.2 | 1025.4 | 0.0 | NNW | 51 | 0.0 |
| 07.10.2022 | 08:38 | 8.4 | 92 | 7.2 | 1025.4 | 0.0 | NNW | 49 | 0.0 |
| 07.10.2022 | 08:44 | 8.4 | 92 | 7.2 | 1025.5 | 0.0 | NNW | 53 | 0.0 |
| 07.10.2022 | 08:48 | 8.4 | 92 | 7.2 | 1025.5 | 0.0 | NNW | 58 | 0.0 |
| 07.10.2022 | 08:54 | 8.4 | 92 | 7.2 | 1025.4 | 0.0 | NNW | 62 | 0.0 |
| 07.10.2022 | 08:58 | 8.5 | 92 | 7.3 | 1025.4 | 1.4 | NW | 62 | 0.0 |
| 07.10.2022 | 09:04 | 8.5 | 92 | 7.3 | 1025.4 | 1.4 | NNW | 67 | 0.0 |
| 07.10.2022 | 09:08 | 8.5 | 92 | 7.3 | 1025.5 | 0.0 | N | 65 | 0.0 |
| 07.10.2022 | 09:14 | 8.6 | 92 | 7.4 | 1025.5 | 0.0 | NNW | 74 | 0.0 |
| 07.10.2022 | 09:18 | 8.6 | 91 | 7.2 | 1025.5 | 0.0 | NNW | 86 | 0.0 |
| 07.10.2022 | 09:24 | 8.8 | 91 | 7.4 | 1025.4 | 0.0 | NNW | 98 | 0.0 |
| 07.10.2022 | 09:28 | 8.9 | 91 | 7.5 | 1025.5 | 0.0 | N | 127 | 0.0 |
| 07.10.2022 | 09:34 | 9.2 | 90 | 7.6 | 1025.5 | 0.0 | NNW | 132 | 0.0 |
| 07.10.2022 | 09:38 | 9.3 | 89 | 7.6 | 1025.5 | 0.0 | N | 128 | 0.0 |
| 07.10.2022 | 09:44 | 9.5 | 89 | 7.8 | 1025.5 | 0.0 | N | 127 | 0.0 |
| 07.10.2022 | 09:48 | 9.6 | 89 | 7.9 | 1025.5 | 0.0 | N | 139 | 0.0 |
| 07.10.2022 | 09:54 | 9.9 | 89 | 8.2 | 1025.5 | 0.0 | NNO | 146 | 0.0 |
| 07.10.2022 | 09:58 | 10.1 | 89 | 8.4 | 1025.4 | 0.0 | NNO | 144 | 0.0 |
| 07.10.2022 | 10:04 | 10.3 | 87 | 8.2 | 1025.5 | 0.0 | ONO | 155 | 0.0 |
| 07.10.2022 | 10:08 | 10.3 | 86 | 8.1 | 1025.4 | 0.0 | ONO | 142 | 0.0 |
| 07.10.2022 | 10:14 | 10.5 | 86 | 8.3 | 1025.4 | 0.0 | ONO | 169 | 0.0 |
| 07.10.2022 | 10:18 | 10.7 | 86 | 8.5 | 1025.3 | 0.0 | N | 156 | 0.0 |
| 07.10.2022 | 10:24 | 10.8 | 86 | 8.6 | 1025.3 | 0.0 | ONO | 160 | 0.0 |
| 07.10.2022 | 10:28 | 11.1 | 85 | 8.7 | 1025.3 | 0.0 | ONO | 171 | 0.0 |
| 07.10.2022 | 10:34 | 11.3 | 85 | 8.9 | 1025.2 | 0.0 | NNW | 211 | 0.0 |
| 07.10.2022 | 10:38 | 11.4 | 85 | 9.0 | 1025.2 | 1.4 | N | 193 | 0.0 |
| 07.10.2022 | 10:44 | 11.6 | 83 | 8.8 | 1025.1 | 0.0 | NNO | 213 | 0.0 |
| 07.10.2022 | 10:48 | 11.8 | 83 | 9.0 | 1025.2 | 0.0 | ONO | 216 | 0.0 |
| 07.10.2022 | 10:54 | 12.1 | 83 | 9.3 | 1025.1 | 0.0 | NNW | 213 | 0.0 |
| 07.10.2022 | 10:58 | 12.1 | 82 | 9.1 | 1025.1 | 0.0 | NNW | 216 | 0.0 |
| 07.10.2022 | 11:04 | 12.1 | 82 | 9.1 | 1025.0 | 0.0 | NNW | 244 | 0.0 |
| 07.10.2022 | 11:08 | 12.5 | 83 | 9.7 | 1025.0 | 0.0 | N | 241 | 0.0 |
| 07.10.2022 | 11:14 | 12.7 | 81 | 9.5 | 1024.9 | 0.0 | N | 229 | 0.0 |
| 07.10.2022 | 11:18 | 12.8 | 81 | 9.6 | 1024.8 | 0.0 | NNO | 229 | 0.0 |
| 07.10.2022 | 11:24 | 12.9 | 79 | 9.3 | 1024.8 | 0.0 | WNW | 229 | 0.0 |
| 07.10.2022 | 11:28 | 13.3 | 80 | 9.9 | 1024.8 | 0.0 | ONO | 229 | 0.0 |
| 07.10.2022 | 11:34 | 13.6 | 79 | 10.0 | 1024.7 | 0.0 | NNO | 229 | 0.0 |
| 07.10.2022 | 11:38 | 13.5 | 80 | 10.1 | 1024.6 | 0.0 | ONO | 229 | 0.0 |
| 07.10.2022 | 11:44 | 13.8 | 80 | 10.4 | 1024.5 | 0.0 | ONO | 229 | 0.0 |
| 07.10.2022 | 11:48 | 13.9 | 78 | 10.1 | 1024.5 | 0.0 | NO | 229 | 0.0 |
| 07.10.2022 | 11:54 | 14.2 | 78 | 10.4 | 1024.5 | 0.0 | NW | 229 | 0.0 |
| 07.10.2022 | 11:58 | 14.3 | 78 | 10.5 | 1024.5 | 1.4 | N | 229 | 0.0 |
| 07.10.2022 | 12:04 | 14.6 | 75 | 10.2 | 1024.3 | 0.0 | NNW | 229 | 0.0 |
| 07.10.2022 | 12:08 | 14.6 | 76 | 10.4 | 1024.3 | 0.0 | SSO | 229 | 0.0 |
| 07.10.2022 | 12:14 | 14.7 | 76 | 10.5 | 1024.3 | 1.4 | WNW | 229 | 0.0 |
| 07.10.2022 | 12:18 | 14.7 | 77 | 10.7 | 1024.2 | 1.4 | NW | 229 | 0.0 |
| 07.10.2022 | 12:24 | 15.4 | 75 | 11.0 | 1024.2 | 0.0 | WNW | 229 | 0.0 |
| 07.10.2022 | 12:28 | 15.4 | 75 | 11.0 | 1024.1 | 0.0 | NNW | 452 | 0.0 |
| 07.10.2022 | 12:34 | 15.6 | 75 | 11.2 | 1023.9 | 0.0 | N | 452 | 0.0 |
| 07.10.2022 | 12:38 | 15.5 | 76 | 11.3 | 1023.8 | 0.0 | ONO | 483 | 0.0 |
| 07.10.2022 | 12:44 | 15.9 | 74 | 11.3 | 1023.8 | 0.0 | NO | 538 | 0.0 |
| 07.10.2022 | 12:48 | 16.1 | 73 | 11.3 | 1023.8 | 0.0 | N | 538 | 0.0 |
| 07.10.2022 | 12:54 | 16.4 | 75 | 12.0 | 1023.7 | 0.0 | NW | 547 | 0.0 |
| 07.10.2022 | 12:58 | 16.3 | 73 | 11.5 | 1023.6 | 0.0 | WSW | 469 | 0.0 |
| 07.10.2022 | 13:04 | 16.4 | 73 | 11.5 | 1023.5 | 0.0 | WNW | 496 | 0.0 |
| 07.10.2022 | 13:08 | 16.6 | 72 | 11.5 | 1023.4 | 0.0 | W | 557 | 0.0 |
| 07.10.2022 | 13:14 | 16.8 | 74 | 12.1 | 1023.4 | 0.0 | ONO | 487 | 0.0 |
| 07.10.2022 | 13:18 | 17.0 | 72 | 11.9 | 1023.3 | 1.4 | WNW | 487 | 0.0 |
| 07.10.2022 | 13:24 | 17.1 | 73 | 12.2 | 1023.2 | 1.4 | S | 577 | 0.0 |
| 07.10.2022 | 13:28 | 17.2 | 73 | 12.3 | 1023.2 | 0.0 | O | 601 | 0.0 |
| 07.10.2022 | 13:34 | 17.6 | 73 | 12.7 | 1023.1 | 1.4 | SSW | 589 | 0.0 |
| 07.10.2022 | 13:38 | 17.7 | 72 | 12.6 | 1023.0 | 1.4 | W | 585 | 0.0 |
| 07.10.2022 | 13:44 | 18.0 | 72 | 12.9 | 1022.9 | 1.4 | S | 591 | 0.0 |
| 07.10.2022 | 13:48 | 18.2 | 72 | 13.1 | 1022.8 | 0.0 | SSO | 601 | 0.0 |
| 07.10.2022 | 13:54 | 18.2 | 72 | 13.1 | 1022.6 | 0.0 | W | 510 | 0.0 |
| 07.10.2022 | 13:58 | 18.3 | 72 | 13.2 | 1022.6 | 1.4 | NNW | 541 | 0.0 |
| 07.10.2022 | 14:04 | 18.3 | 73 | 13.4 | 1022.5 | 3.2 | S | 519 | 0.0 |
| 07.10.2022 | 14:08 | 18.3 | 71 | 13.0 | 1022.5 | 1.4 | S | 519 | 0.0 |
| 07.10.2022 | 14:14 | 18.4 | 71 | 13.0 | 1022.4 | 1.4 | NNW | 534 | 0.0 |
| 07.10.2022 | 14:18 | 18.6 | 72 | 13.5 | 1022.2 | 1.4 | O | 543 | 0.0 |
| 07.10.2022 | 14:24 | 18.8 | 74 | 14.1 | 1022.1 | 1.4 | WNW | 559 | 0.0 |
| 07.10.2022 | 14:28 | 18.7 | 71 | 13.3 | 1022.0 | 1.4 | NNW | 515 | 0.0 |
| 07.10.2022 | 14:34 | 18.9 | 71 | 13.5 | 1021.9 | 1.4 | SSO | 464 | 0.0 |
| 07.10.2022 | 14:38 | 18.8 | 70 | 13.2 | 1021.9 | 0.0 | SSO | 464 | 0.0 |
| 07.10.2022 | 14:44 | 19.4 | 71 | 14.0 | 1021.8 | 1.4 | NW | 464 | 0.0 |
| 07.10.2022 | 14:48 | 19.2 | 70 | 13.6 | 1021.7 | 1.4 | NNW | 464 | 0.0 |
| 07.10.2022 | 14:54 | 19.2 | 70 | 13.6 | 1021.7 | 3.2 | SSO | 496 | 0.0 |
| 07.10.2022 | 14:58 | 19.2 | 71 | 13.8 | 1021.7 | 1.4 | OSO | 496 | 0.0 |
| 07.10.2022 | 15:04 | 19.0 | 71 | 13.6 | 1021.6 | 0.0 | WSW | 496 | 0.0 |
| 07.10.2022 | 15:08 | 19.1 | 70 | 13.5 | 1021.5 | 1.4 | NNW | 468 | 0.0 |
| 07.10.2022 | 15:14 | 19.3 | 71 | 13.9 | 1021.4 | 1.4 | SSW | 494 | 0.0 |
| 07.10.2022 | 15:18 | 19.4 | 70 | 13.8 | 1021.4 | 1.4 | SW | 424 | 0.0 |
| 07.10.2022 | 15:24 | 19.1 | 70 | 13.5 | 1021.2 | 3.2 | W | 424 | 0.0 |
| 07.10.2022 | 15:28 | 19.1 | 71 | 13.7 | 1021.2 | 3.2 | WNW | 424 | 0.0 |
| 07.10.2022 | 15:34 | 18.9 | 72 | 13.7 | 1021.1 | 1.4 | W | 211 | 0.0 |
| 07.10.2022 | 15:38 | 19.2 | 70 | 13.6 | 1021.1 | 1.4 | NW | 422 | 0.0 |
| 07.10.2022 | 15:44 | 19.3 | 70 | 13.7 | 1021.0 | 0.0 | S | 394 | 0.0 |
| 07.10.2022 | 15:48 | 19.6 | 71 | 14.2 | 1020.9 | 1.4 | WSW | 320 | 0.0 |
| 07.10.2022 | 15:54 | 19.5 | 71 | 14.1 | 1020.9 | 1.4 | WSW | 357 | 0.0 |
| 07.10.2022 | 15:58 | 19.3 | 71 | 13.9 | 1020.8 | 1.4 | S | 401 | 0.0 |
| 07.10.2022 | 16:04 | 19.6 | 70 | 14.0 | 1020.7 | 3.2 | WNW | 403 | 0.0 |
| 07.10.2022 | 16:08 | 19.4 | 70 | 13.8 | 1020.7 | 1.4 | SW | 376 | 0.0 |
| 07.10.2022 | 16:14 | 19.7 | 73 | 14.7 | 1020.6 | 0.0 | SO | 355 | 0.0 |
| 07.10.2022 | 16:18 | 19.5 | 70 | 13.9 | 1020.6 | 0.0 | S | 355 | 0.0 |
| 07.10.2022 | 16:24 | 19.3 | 71 | 13.9 | 1020.5 | 1.4 | SW | 355 | 0.0 |
| 07.10.2022 | 16:28 | 19.1 | 72 | 13.9 | 1020.4 | 1.4 | SW | 355 | 0.0 |
| 07.10.2022 | 16:34 | 18.9 | 72 | 13.7 | 1020.4 | 1.4 | SW | 91 | 0.0 |
| 07.10.2022 | 16:38 | 18.8 | 73 | 13.9 | 1020.3 | 1.4 | S | 139 | 0.0 |
| 07.10.2022 | 16:44 | 18.8 | 74 | 14.1 | 1020.3 | 0.0 | S | 139 | 0.0 |
| 07.10.2022 | 16:48 | 19.0 | 75 | 14.5 | 1020.1 | 0.0 | SSW | 316 | 0.0 |
| 07.10.2022 | 16:54 | 19.2 | 72 | 14.0 | 1020.1 | 0.0 | WNW | 309 | 0.0 |
| 07.10.2022 | 16:58 | 19.2 | 73 | 14.2 | 1019.9 | 0.0 | S | 309 | 0.0 |
| 07.10.2022 | 17:04 | 19.1 | 72 | 13.9 | 1019.9 | 0.0 | SSO | 135 | 0.0 |
| 07.10.2022 | 17:08 | 18.9 | 73 | 14.0 | 1019.9 | 0.0 | S | 135 | 0.0 |
| 07.10.2022 | 17:14 | 19.1 | 73 | 14.1 | 1019.9 | 0.0 | WSW | 178 | 0.0 |
| 07.10.2022 | 17:18 | 19.1 | 74 | 14.4 | 1019.8 | 0.0 | WSW | 181 | 0.0 |
| 07.10.2022 | 17:24 | 19.1 | 74 | 14.4 | 1019.7 | 0.0 | WSW | 181 | 0.0 |
| 07.10.2022 | 17:28 | 19.1 | 73 | 14.1 | 1019.6 | 0.0 | WSW | 155 | 0.0 |
| 07.10.2022 | 17:34 | 18.9 | 74 | 14.2 | 1019.5 | 0.0 | SSW | 116 | 0.0 |
| 07.10.2022 | 17:38 | 18.9 | 74 | 14.2 | 1019.5 | 0.0 | SSO | 69 | 0.0 |
| 07.10.2022 | 17:44 | 18.8 | 74 | 14.1 | 1019.5 | 0.0 | SSW | 62 | 0.0 |
| 07.10.2022 | 17:48 | 18.6 | 76 | 14.3 | 1019.5 | 0.0 | SSW | 53 | 0.0 |
| 07.10.2022 | 17:54 | 18.2 | 79 | 14.5 | 1019.5 | 0.0 | SSW | 49 | 0.0 |
| 07.10.2022 | 17:58 | 18.0 | 79 | 14.3 | 1019.5 | 0.0 | SSW | 44 | 0.0 |
| 07.10.2022 | 18:04 | 17.8 | 80 | 14.3 | 1019.4 | 0.0 | SSW | 39 | 0.0 |
| 07.10.2022 | 18:08 | 17.6 | 81 | 14.3 | 1019.4 | 0.0 | SSW | 33 | 0.0 |
| 07.10.2022 | 18:14 | 17.3 | 83 | 14.4 | 1019.4 | 0.0 | SSW | 26 | 0.0 |
| 07.10.2022 | 18:18 | 17.1 | 84 | 14.4 | 1019.3 | 0.0 | SSW | 25 | 0.0 |
| 07.10.2022 | 18:24 | 16.7 | 85 | 14.2 | 1019.3 | 0.0 | SSW | 26 | 0.0 |
| 07.10.2022 | 18:28 | 16.5 | 86 | 14.1 | 1019.3 | 0.0 | SSW | 26 | 0.0 |
| 07.10.2022 | 18:34 | 16.4 | 87 | 14.2 | 1019.3 | 0.0 | S | 19 | 0.0 |
| 07.10.2022 | 18:38 | 16.3 | 87 | 14.1 | 1019.3 | 0.0 | S | 16 | 0.0 |
| 07.10.2022 | 18:44 | 16.0 | 88 | 14.0 | 1019.3 | 0.0 | S | 11 | 0.0 |
| 07.10.2022 | 18:48 | 15.8 | 88 | 13.8 | 1019.3 | 0.0 | S | 7 | 0.0 |
| 07.10.2022 | 18:54 | 15.6 | 89 | 13.8 | 1019.3 | 0.0 | S | 0 | 0.0 |
| 07.10.2022 | 18:58 | 15.4 | 89 | 13.6 | 1019.3 | 0.0 | S | 0 | 0.0 |
| 07.10.2022 | 19:04 | 15.2 | 89 | 13.4 | 1019.3 | 0.0 | S | 0 | 0.0 |
| 07.10.2022 | 19:08 | 15.1 | 90 | 13.5 | 1019.3 | 0.0 | S | 0 | 0.0 |
| 07.10.2022 | 19:14 | 14.8 | 90 | 13.2 | 1019.3 | 0.0 | S | 0 | 0.0 |
| 07.10.2022 | 19:18 | 14.7 | 91 | 13.2 | 1019.3 | 0.0 | S | 0 | 0.0 |
| 07.10.2022 | 19:24 | 14.7 | 91 | 13.2 | 1019.3 | 0.0 | S | 0 | 0.0 |
| 07.10.2022 | 19:28 | 14.7 | 91 | 13.2 | 1019.3 | 0.0 | S | 0 | 0.0 |
| 07.10.2022 | 19:34 | 14.6 | 91 | 13.1 | 1019.4 | 0.0 | S | 0 | 0.0 |
| 07.10.2022 | 19:38 | 14.5 | 91 | 13.0 | 1019.3 | 0.0 | S | 0 | 0.0 |
| 07.10.2022 | 19:44 | 14.4 | 92 | 13.1 | 1019.3 | 0.0 | S | 0 | 0.0 |
| 07.10.2022 | 19:48 | 14.4 | 92 | 13.1 | 1019.3 | 0.0 | S | 0 | 0.0 |
| 07.10.2022 | 19:54 | 14.2 | 92 | 12.9 | 1019.4 | 0.0 | S | 0 | 0.0 |
| 07.10.2022 | 19:58 | 14.2 | 92 | 12.9 | 1019.4 | 0.0 | S | 0 | 0.0 |
| 07.10.2022 | 20:04 | 14.2 | 93 | 13.1 | 1019.4 | 0.0 | S | 0 | 0.0 |
| 07.10.2022 | 20:08 | 14.3 | 93 | 13.2 | 1019.4 | 0.0 | S | 0 | 0.0 |
| 07.10.2022 | 20:14 | 14.3 | 92 | 13.0 | 1019.4 | 0.0 | S | 0 | 0.0 |
| 07.10.2022 | 20:18 | 14.3 | 92 | 13.0 | 1019.3 | 0.0 | S | 0 | 0.0 |
| 07.10.2022 | 20:24 | 14.3 | 92 | 13.0 | 1019.3 | 0.0 | S | 0 | 0.0 |
| 07.10.2022 | 20:28 | 14.4 | 92 | 13.1 | 1019.3 | 0.0 | S | 0 | 0.0 |
| 07.10.2022 | 20:34 | 14.4 | 92 | 13.1 | 1019.3 | 0.0 | S | 0 | 0.0 |
| 07.10.2022 | 20:38 | 14.3 | 92 | 13.0 | 1019.3 | 0.0 | S | 0 | 0.0 |
| 07.10.2022 | 20:44 | 14.4 | 92 | 13.1 | 1019.2 | 0.0 | S | 0 | 0.0 |
| 07.10.2022 | 20:48 | 14.4 | 92 | 13.1 | 1019.2 | 0.0 | S | 0 | 0.0 |
| 07.10.2022 | 20:54 | 14.5 | 92 | 13.2 | 1019.2 | 0.0 | S | 0 | 0.0 |
| 07.10.2022 | 20:58 | 14.4 | 92 | 13.1 | 1019.2 | 0.0 | S | 0 | 0.0 |
| 07.10.2022 | 21:04 | 14.4 | 92 | 13.1 | 1019.2 | 0.0 | S | 0 | 0.0 |
| 07.10.2022 | 21:08 | 14.4 | 92 | 13.1 | 1019.2 | 0.0 | S | 0 | 0.0 |
| 07.10.2022 | 21:14 | 14.3 | 92 | 13.0 | 1019.2 | 0.0 | S | 0 | 0.0 |
| 07.10.2022 | 21:18 | 14.3 | 92 | 13.0 | 1019.2 | 0.0 | S | 0 | 0.0 |
| 07.10.2022 | 21:24 | 14.2 | 92 | 12.9 | 1019.1 | 0.0 | S | 0 | 0.0 |
| 07.10.2022 | 21:28 | 14.2 | 93 | 13.1 | 1019.1 | 0.0 | S | 0 | 0.0 |
| 07.10.2022 | 21:34 | 14.1 | 92 | 12.8 | 1019.0 | 0.0 | S | 0 | 0.0 |
| 07.10.2022 | 21:38 | 14.1 | 92 | 12.8 | 1019.0 | 0.0 | S | 0 | 0.0 |
| 07.10.2022 | 21:44 | 13.9 | 93 | 12.8 | 1018.9 | 0.0 | S | 0 | 0.0 |
| 07.10.2022 | 21:48 | 13.9 | 93 | 12.8 | 1018.9 | 0.0 | S | 0 | 0.0 |
| 07.10.2022 | 21:54 | 13.8 | 93 | 12.7 | 1019.0 | 0.0 | S | 0 | 0.0 |
| 07.10.2022 | 21:58 | 13.8 | 93 | 12.7 | 1019.0 | 0.0 | S | 0 | 0.0 |
| 07.10.2022 | 22:04 | 13.7 | 93 | 12.6 | 1019.0 | 0.0 | S | 0 | 0.0 |
| 07.10.2022 | 22:08 | 13.7 | 93 | 12.6 | 1019.0 | 0.0 | S | 0 | 0.0 |
| 07.10.2022 | 22:14 | 13.5 | 94 | 12.6 | 1019.0 | 0.0 | S | 0 | 0.0 |
| 07.10.2022 | 22:18 | 13.4 | 94 | 12.5 | 1019.0 | 0.0 | S | 0 | 0.0 |
| 07.10.2022 | 22:24 | 13.5 | 94 | 12.6 | 1019.0 | 0.0 | S | 0 | 0.0 |
| 07.10.2022 | 22:28 | 13.5 | 94 | 12.6 | 1019.0 | 0.0 | S | 0 | 0.0 |
| 07.10.2022 | 22:34 | 13.6 | 95 | 12.8 | 1018.9 | 0.0 | S | 0 | 0.0 |
| 07.10.2022 | 22:38 | 13.5 | 94 | 12.6 | 1019.0 | 0.0 | S | 0 | 0.0 |
| 07.10.2022 | 22:44 | 13.6 | 94 | 12.7 | 1018.9 | 1.4 | S | 0 | 0.0 |
| 07.10.2022 | 22:48 | 13.5 | 94 | 12.6 | 1018.9 | 1.4 | S | 0 | 0.0 |
| 07.10.2022 | 22:54 | 13.4 | 94 | 12.5 | 1018.9 | 1.4 | S | 0 | 0.0 |
| 07.10.2022 | 22:58 | 13.4 | 94 | 12.5 | 1018.9 | 1.4 | S | 0 | 0.0 |
| 07.10.2022 | 23:04 | 13.3 | 94 | 12.4 | 1018.9 | 1.4 | SSW | 0 | 0.0 |
| 07.10.2022 | 23:08 | 13.2 | 95 | 12.4 | 1018.9 | 1.4 | SSW | 0 | 0.0 |
| 07.10.2022 | 23:14 | 13.2 | 95 | 12.4 | 1018.8 | 0.0 | SSW | 0 | 0.0 |
| 07.10.2022 | 23:18 | 13.2 | 95 | 12.4 | 1018.8 | 0.0 | SSW | 0 | 0.0 |
| 07.10.2022 | 23:24 | 13.2 | 95 | 12.4 | 1018.8 | 0.0 | SSW | 0 | 0.0 |
| 07.10.2022 | 23:28 | 13.2 | 95 | 12.4 | 1018.8 | 0.0 | SSW | 0 | 0.0 |
| 07.10.2022 | 23:34 | 13.0 | 95 | 12.2 | 1018.7 | 0.0 | SSW | 0 | 0.0 |
| 07.10.2022 | 23:38 | 12.9 | 95 | 12.1 | 1018.7 | 0.0 | SSW | 0 | 0.0 |
| 07.10.2022 | 23:44 | 12.7 | 95 | 11.9 | 1018.8 | 0.0 | SSW | 0 | 0.0 |
| 07.10.2022 | 23:48 | 12.7 | 95 | 11.9 | 1018.8 | 0.0 | SSW | 0 | 0.0 |
| 07.10.2022 | 23:54 | 12.6 | 95 | 11.8 | 1018.7 | 0.0 | SSW | 0 | 0.0 |
| 07.10.2022 | 23:58 | 12.4 | 95 | 11.6 | 1018.7 | 0.0 | SW | 0 | 0.0 |